Wind_Speed
17 18 18 19 21 21 21 23 24 25 26 28 30 32 32 31 32 32 35 36 37 38 39 41 42 43 43 43 45 45 46 45 45 44 44 43 43 42 42 42 40 41 40 39
17 17 17 18 19 20 21 23 24 24 25 27 29 30 30 30 30 31 33 35 36 37 38 39 41 42 43 43 44 45 44 45 45 45 44 44 44 44 43 42 42 42 42 41
18 17 17 18 18 19 20 21 22 24 25 26 28 28 29 29 30 31 33 34 35 37 38 39 40 40 41 43 43 44 45 45 45 45 45 45 46 46 45 44 43 43 42 42
17 17 17 18 18 19 19 20 21 22 23 25 26 27 27 29 30 31 31 33 35 37 39 40 40 40 41 41 42 44 45 45 45 45 45 46 47 46 44 44 43 42 42 41
18 18 18 18 17 17 18 19 20 20 22 24 25 27 26 28 29 30 30 32 33 35 37 39 40 41 42 42 41 42 44 45 45 45 45 46 45 46 45 44 45 44 42 41
19 18 17 17 17 17 17 17 17 19 21 23 24 26 27 27 28 29 29 30 31 33 35 37 38 38 39 41 42 41 43 45 45 45 46 45 44 44 44 44 43 43 42 41
20 18 17 17 16 16 17 15 15 17 19 22 22 23 26 26 27 28 28 28 30 31 33 36 36 37 37 38 40 41 42 43 44 44 45 47 45 42 42 43 43 43 42 42
20 18 17 17 16 16 15 15 15 16 17 17 19 22 23 25 25 26 27 28 29 30 31 34 35 37 37 38 39 40 42 42 42 43 43 44 45 45 43 43 43 43 44 43
21 19 17 17 16 15 15 14 14 16 17 17 18 20 23 24 25 26 27 27 28 29 30 32 35 37 38 38 39 39 40 42 42 42 43 43 42 43 43 43 43 43 44 44
21 20 18 17 17 16 15 14 14 15 17 19 19 19 21 22 24 26 27 27 28 29 30 31 34 35 37 38 39 40 40 41 42 42 42 43 42 43 44 43 43 43 44 43
22 21 19 18 17 17 16 16 17 17 17 19 20 19 21 22 23 24 25 27 28 29 30 31 33 33 34 36 37 39 40 41 42 43 43 43 42 42 42 40 40 40 42 42
22 22 21 20 19 18 17 17 17 18 19 20 20 21 21 22 22 23 23 24 26 28 29 31 31 32 33 34 35 37 38 39 40 40 41 41 41 41 41 40 40 39 39 40
22 22 22 22 20 19 19 18 19 19 20 21 21 21 21 21 21 21 22 24 25 26 28 29 30 31 32 34 34 35 37 38 38 38 39 39 39 40 41 41 41 40 40 41
22 22 22 23 22 20 20 20 20 21 22 22 22 21 21 22 22 22 22 23 24 26 27 28 29 30 32 33 33 34 35 36 37 37 38 38 37 38 39 39 39 39 39 40
23 23 22 22 22 22 20 20 21 22 23 23 23 22 22 23 23 23 23 23 23 24 26 27 28 28 29 31 32 33 34 35 35 35 36 37 37 37 37 37 38 38 37 37
24 23 23 22 22 22 21 21 22 23 23 23 23 23 23 23 24 24 24 24 24 23 24 26 28 28 28 28 30 31 31 33 34 34 35 35 35 35 36 35 35 36 36 36
24 24 24 24 23 24 22 22 24 24 24 25 24 24 24 23 24 24 24 24 24 23 23 24 25 27 28 28 29 30 30 31 33 34 34 34 35 35 35 34 35 37 37 36
25 25 25 25 25 25 23 23 23 24 24 25 25 24 25 25 24 24 24 24 24 23 24 24 24 25 26 27 28 28 28 29 30 31 33 34 35 35 34 34 35 35 36 36
26 26 26 26 26 25 24 23 24 24 24 26 26 26 27 26 25 24 24 24 25 24 24 24 24 25 24 25 25 27 27 27 28 29 30 32 33 34 34 34 34 34 34 35
26 26 26 26 26 25 23 23 24 25 24 25 26 27 27 26 26 24 25 25 26 26 25 25 25 25 25 25 24 25 26 26 27 28 29 30 31 32 32 33 33 33 34 35
26 26 26 27 27 26 25 24 25 26 26 25 26 26 26 26 25 25 25 24 25 26 26 26 26 25 25 25 25 25 27 27 26 27 28 29 30 30 31 31 31 32 32 33
26 26 26 27 27 26 25 25 25 26 26 25 25 25 25 24 24 24 24 23 23 24 24 25 25 25 25 26 26 26 27 27 27 28 28 29 29 29 30 30 30 30 30 31
27 27 26 26 26 26 25 25 26 26 26 25 25 24 24 24 24 24 24 23 22 23 23 24 25 25 26 26 27 27 27 27 27 27 27 27 27 28 29 29 29 29 29 30
28 27 27 27 26 26 25 26 26 26 26 25 25 24 25 24 24 24 24 24 23 23 24 25 25 25 25 26 26 27 27 28 27 27 27 28 28 28 28 28 28 28 28 29
28 28 27 26 25 25 25 25 24 24 24 25 25 24 24 23 23 23 23 23 22 22 22 23 24 24 25 25 26 26 26 27 27 27 26 27 28 28 28 28 28 29 29 29
28 27 27 26 25 26 25 24 24 23 24 24 23 23 23 23 22 22 22 23 22 21 21 21 22 23 24 25 26 27 27 27 26 26 26 26 27 27 28 29 29 29 29 29
Wind_Direction
295 283 279 279 276 270 264 263 261 260 258 256 255 250 247 246 247 248 249 249 248 247 246 245 242 240 239 239 239 240 240 240 240 240 243 243 245 248 250 252 253 254 256 257
300 293 290 284 275 271 270 266 262 260 259 257 257 252 248 247 248 250 252 250 250 248 246 245 244 241 240 240 240 241 242 242 241 241 243 245 247 248 249 252 254 256 256 256
306 302 296 289 277 273 272 268 265 263 259 258 257 252 250 249 250 252 253 252 250 248 246 245 244 243 243 243 243 242 242 242 242 242 244 247 249 250 250 251 253 256 256 256
310 304 299 294 284 278 275 272 267 264 261 257 256 255 253 252 252 254 254 252 251 251 250 246 244 245 245 243 243 243 242 243 243 244 245 248 249 250 252 253 254 256 257 257
312 307 299 295 289 285 279 275 269 263 259 257 257 259 257 257 255 255 255 253 252 251 250 247 246 246 247 245 245 244 242 242 243 244 246 248 250 251 252 254 255 256 259 260
317 310 302 296 289 285 283 277 269 263 260 258 258 260 261 260 258 259 259 255 252 252 250 246 245 246 246 245 244 243 243 243 244 245 246 248 250 251 251 253 255 256 258 258
318 312 304 299 292 287 283 278 276 270 263 260 258 260 263 264 263 262 260 257 253 253 251 248 246 247 246 245 243 244 243 243 245 246 248 249 250 252 252 255 255 256 256 256
323 316 305 298 293 291 284 279 280 277 275 270 263 264 264 265 265 264 261 259 256 256 254 250 249 248 247 246 245 245 245 244 245 247 248 249 251 252 254 256 256 256 257 258
325 320 306 297 293 289 285 281 282 277 275 278 276 273 268 267 267 265 262 259 257 258 256 254 251 249 247 245 246 246 247 246 247 249 249 249 253 253 254 256 256 256 257 257
328 322 311 300 294 287 286 281 280 277 278 279 279 281 276 270 269 266 262 261 259 259 257 255 253 250 248 245 247 248 248 248 248 249 250 251 252 253 253 255 256 257 258 258
325 322 314 304 297 291 284 278 280 279 278 281 282 285 283 279 274 270 267 264 262 262 260 258 255 251 248 248 249 249 249 249 250 251 252 252 253 255 254 256 259 259 258 258
322 319 315 307 297 291 286 280 278 278 279 281 284 284 283 281 277 274 270 267 265 264 262 260 257 253 251 250 250 251 249 250 252 252 252 253 254 255 256 258 259 261 261 260
321 318 315 311 300 289 283 280 279 279 280 279 281 281 282 280 277 274 271 269 268 267 264 260 256 252 251 252 252 252 252 252 252 251 251 252 254 256 257 259 259 261 261 262
317 316 314 312 306 295 284 279 279 279 280 280 280 281 280 279 275 273 272 271 268 268 266 262 257 254 254 255 255 255 254 252 253 253 252 251 254 256 258 259 260 262 262 263
313 312 310 308 306 297 287 280 278 279 281 280 279 280 281 277 276 275 274 273 271 267 266 262 259 258 257 257 256 255 253 252 254 253 252 253 254 256 259 260 261 261 262 264
310 309 307 306 303 297 289 281 278 279 279 279 278 279 280 277 275 274 274 274 274 270 266 263 260 257 256 255 255 254 252 254 255 255 253 254 255 257 259 259 259 260 261 262
311 309 306 304 302 298 293 289 284 281 279 279 279 279 280 278 274 273 272 273 274 272 268 263 260 257 255 254 255 255 254 255 256 255 253 254 255 256 258 258 259 260 260 261
311 310 307 304 302 299 298 294 289 285 282 279 277 277 278 278 276 274 272 271 271 268 266 265 263 260 256 254 254 254 254 255 256 256 255 254 255 256 258 259 260 261 260 262
310 309 307 306 303 301 299 297 294 290 284 280 277 276 277 276 275 274 273 271 268 266 265 264 263 261 259 256 255 255 254 254 255 256 256 256 255 258 260 261 263 263 262 263
309 307 306 305 303 303 303 298 294 291 288 283 280 279 277 275 275 274 273 272 268 266 265 263 262 261 258 255 255 254 254 255 256 257 259 259 259 260 260 261 262 263 264 264
308 307 306 304 303 305 305 300 296 292 290 286 283 282 279 276 276 276 275 273 270 267 264 263 261 259 258 257 258 258 258 257 258 260 261 261 260 260 261 262 263 264 265 266
308 307 307 306 306 308 305 299 295 293 290 286 283 281 279 277 276 276 276 275 272 269 266 263 262 261 261 258 259 260 259 259 260 261 262 262 261 261 261 262 264 266 267 268
307 307 306 307 307 307 303 298 296 294 290 285 282 279 278 278 276 276 276 275 272 271 269 267 264 262 262 260 258 259 258 260 262 263 264 264 264 263 264 265 266 267 268 269
307 306 305 306 306 304 302 299 296 293 290 286 283 281 280 279 278 278 276 275 275 273 272 270 267 264 262 262 261 260 259 262 263 263 264 264 263 265 265 266 266 267 269 270
306 306 305 305 305 302 301 298 296 293 289 287 285 283 283 281 281 281 279 276 276 276 274 271 268 267 266 263 261 262 262 263 265 265 264 264 264 266 266 267 268 269 270 272
305 305 304 303 302 300 301 299 297 293 291 289 286 284 283 284 284 283 281 277 276 275 274 274 271 269 267 265 262 262 264 265 267 267 267 266 266 266 267 268 268 270 271 271
Height
5657 5657 5655 5654 5654 5654 5654 5655 5656 5657 5657 5657 5659 5662 5667 5669 5672 5674 5677 5680 5683 5686 5689 5693 5697 5701 5706 5710 5715 5719 5722 5726 5730 5734 5738 5741 5743 5746 5748 5750 5752 5753 5754 5755
5654 5652 5651 5650 5649 5649 5649 5649 5650 5651 5652 5652 5653 5656 5660 5663 5666 5668 5671 5673 5676 5679 5682 5685 5689 5693 5697 5702 5706 5709 5713 5717 5721 5725 5729 5732 5735 5737 5739 5741 5743 5744 5745 5747
5650 5649 5647 5646 5645 5645 5645 5645 5646 5646 5647 5647 5648 5650 5653 5657 5659 5662 5664 5667 5669 5671 5674 5678 5681 5685 5689 5693 5697 5701 5704 5708 5712 5716 5719 5723 5726 5728 5730 5732 5733 5734 5736 5737
5646 5645 5644 5643 5642 5641 5641 5640 5640 5640 5641 5642 5643 5644 5648 5650 5653 5655 5657 5660 5662 5664 5666 5670 5673 5677 5680 5684 5688 5692 5695 5699 5703 5706 5710 5713 5716 5718 5721 5723 5724 5725 5726 5727
5643 5641 5640 5639 5638 5636 5636 5635 5635 5636 5636 5637 5638 5639 5643 5644 5646 5649 5651 5653 5654 5656 5659 5662 5665 5669 5671 5674 5678 5682 5686 5690 5694 5697 5701 5703 5705 5708 5711 5713 5715 5717 5718 5719
5641 5638 5637 5635 5634 5632 5632 5631 5631 5631 5631 5632 5635 5635 5637 5638 5641 5643 5644 5646 5648 5649 5652 5654 5657 5660 5663 5666 5669 5674 5678 5681 5685 5688 5691 5693 5695 5698 5701 5703 5705 5707 5709 5710
5638 5635 5633 5632 5631 5629 5628 5628 5627 5626 5626 5628 5630 5630 5632 5634 5635 5636 5638 5640 5641 5643 5645 5647 5649 5652 5655 5658 5661 5665 5668 5672 5675 5679 5682 5684 5686 5688 5691 5694 5696 5698 5699 5701
5635 5633 5630 5628 5627 5626 5625 5625 5625 5624 5624 5625 5625 5625 5628 5629 5630 5630 5632 5633 5635 5636 5638 5640 5642 5644 5647 5650 5653 5656 5659 5662 5666 5669 5672 5674 5677 5680 5682 5685 5686 5688 5690 5691
5632 5630 5627 5625 5623 5623 5621 5621 5622 5621 5621 5621 5621 5622 5622 5623 5624 5625 5626 5627 5628 5630 5631 5633 5634 5636 5639 5641 5644 5647 5650 5653 5656 5660 5662 5665 5667 5670 5673 5675 5676 5678 5680 5682
5629 5627 5625 5622 5621 5620 5619 5619 5619 5618 5617 5617 5618 5618 5618 5618 5618 5619 5620 5621 5622 5624 5625 5625 5627 5628 5631 5633 5636 5639 5641 5644 5647 5650 5653 5656 5658 5661 5663 5665 5667 5669 5670 5672
5626 5624 5622 5619 5618 5617 5617 5616 5615 5615 5614 5613 5613 5616 5614 5613 5613 5614 5614 5615 5616 5616 5617 5618 5619 5621 5623 5625 5628 5630 5633 5635 5638 5641 5644 5647 5649 5651 5654 5656 5657 5659 5660 5662
5623 5621 5618 5617 5615 5613 5613 5612 5612 5612 5611 5610 5609 5613 5609 5608 5608 5608 5608 5608 5609 5610 5611 5612 5612 5614 5615 5617 5620 5622 5624 5627 5629 5632 5634 5637 5640 5642 5644 5646 5648 5649 5651 5653
5620 5618 5615 5613 5613 5611 5609 5608 5607 5607 5606 5605 5605 5608 5604 5603 5603 5602 5602 5602 5603 5604 5604 5605 5605 5607 5608 5610 5612 5613 5616 5618 5620 5622 5625 5628 5630 5633 5635 5637 5638 5640 5642 5644
5616 5614 5612 5610 5607 5605 5605 5604 5603 5602 5601 5601 5600 5600 5599 5598 5597 5597 5597 5596 5596 5597 5597 5598 5598 5599 5601 5602 5603 5605 5607 5609 5611 5613 5616 5619 5621 5624 5626 5627 5629 5631 5633 5635
5612 5610 5607 5605 5603 5601 5600 5599 5598 5597 5597 5596 5595 5594 5594 5592 5592 5591 5591 5591 5591 5591 5591 5591 5592 5593 5594 5595 5596 5597 5599 5601 5603 5605 5608 5611 5613 5615 5617 5619 5620 5622 5624 5625
5607 5605 5603 5601 5599 5596 5595 5595 5593 5592 5591 5590 5589 5589 5588 5587 5586 5586 5585 5585 5584 5584 5584 5584 5585 5586 5587 5587 5588 5589 5591 5593 5594 5597 5599 5602 5605 5607 5609 5610 5612 5613 5615 5617
5603 5600 5598 5596 5594 5591 5591 5590 5588 5587 5586 5585 5584 5584 5582 5581 5580 5580 5579 5579 5578 5578 5578 5578 5578 5579 5579 5580 5581 5582 5583 5585 5586 5589 5592 5594 5596 5598 5600 5601 5603 5605 5606 5608
5598 5595 5592 5590 5589 5587 5589 5584 5582 5580 5580 5578 5577 5577 5576 5575 5574 5574 5573 5573 5572 5572 5572 5571 5572 5572 5572 5573 5574 5575 5576 5578 5579 5581 5584 5586 5588 5590 5591 5592 5594 5596 5597 5599
5593 5590 5587 5584 5582 5581 5582 5579 5576 5574 5574 5572 5571 5570 5569 5568 5568 5568 5567 5566 5566 5565 5565 5565 5565 5566 5566 5566 5567 5568 5569 5571 5573 5574 5576 5578 5580 5581 5583 5584 5586 5587 5588 5590
5587 5585 5582 5579 5576 5575 5576 5573 5569 5568 5568 5567 5565 5563 5562 5561 5561 5562 5560 5559 5559 5559 5559 5559 5559 5559 5560 5560 5561 5562 5564 5565 5566 5567 5569 5570 5572 5573 5575 5576 5577 5578 5579 5580
5582 5579 5577 5573 5570 5569 5569 5566 5563 5563 5562 5560 5558 5556 5555 5554 5555 5555 5553 5553 5552 5552 5552 5552 5552 5553 5554 5554 5555 5556 5557 5558 5559 5560 5562 5563 5564 5565 5566 5568 5569 5569 5570 5571
5577 5574 5571 5568 5565 5566 5562 5560 5558 5556 5553 5552 5551 5550 5549 5548 5547 5547 5546 5546 5545 5545 5545 5545 5545 5546 5547 5548 5549 5550 5551 5552 5552 5554 5555 5555 5556 5557 5558 5560 5560 5561 5562 5562
5571 5569 5565 5564 5563 5559 5556 5553 5551 5548 5547 5545 5544 5543 5542 5542 5541 5540 5540 5539 5539 5538 5538 5538 5539 5539 5540 5541 5542 5543 5544 5545 5545 5546 5547 5548 5548 5549 5550 5551 5552 5553 5553 5554
5565 5562 5559 5557 5556 5553 5549 5546 5544 5542 5540 5539 5537 5537 5536 5535 5534 5533 5533 5532 5532 5532 5532 5531 5532 5532 5533 5534 5534 5535 5536 5537 5538 5539 5540 5540 5541 5542 5543 5543 5544 5545 5545 5545
5559 5555 5553 5551 5549 5546 5544 5540 5538 5536 5534 5532 5531 5530 5529 5528 5528 5527 5526 5526 5525 5525 5525 5525 5525 5525 5526 5527 5527 5528 5529 5530 5531 5532 5532 5533 5533 5534 5535 5535 5536 5536 5536 5536
5552 5550 5547 5545 5542 5539 5537 5535 5532 5530 5528 5526 5525 5524 5523 5522 5521 5520 5520 5519 5519 5519 5518 5518 5518 5518 5519 5519 5520 5521 5522 5523 5524 5524 5525 5525 5525 5526 5527 5527 5527 5527 5528 5528